This demonstration page uses our WeatherBlox Daily Observations layout. Learn more.

Left ArrowRight Arrow

39.29038, -76.61219

Hourly Observations for July 5, 2022

Temp ( °F °C ) Dew Point ( °F °C ) Humidity (%) Winds ( mph kmh ) Pressure ( in mb ) Visibility ( mi km ) Precip ( " mm )
12:54 am 00:54 Mostly Cloudy 69 20.6 57 13.9 66 66 Calm 30.12 1020 9 14 0.00 0.00
1:54 am 01:54 Partly Cloudy 69 20.6 58 14.4 68 68 Calm 30.11 1020 10 16 0.00 0.00
2:54 am 02:54 Partly Cloudy 70 21.1 61 16.1 73 73 SSW 5 7 30.10 1019 10 16 0.00 0.00
3:54 am 03:54 Mostly Cloudy 69 20.6 63 17.2 81 81 Calm 30.09 1019 10 16 0.00 0.00
4:54 am 04:54 Mostly Cloudy 70 21.1 65 18.3 84 84 Calm 30.10 1019 10 16 0.00 0.00
5:54 am 05:54 Mostly Cloudy 71 21.7 66 18.9 84 84 SSE 3 6 30.10 1019 10 16 0.00 0.00
6:54 am 06:54 Cloudy 72 22.2 66 18.9 82 82 Calm 30.10 1019 10 16 0.00 0.00
7:54 am 07:54 Mostly Cloudy 74 23.3 67 19.4 79 79 SSW 5 7 30.09 1019 10 16 0.00 0.00
8:54 am 08:54 Mostly Cloudy 79 26.1 67 19.4 67 67 SSW 6 9 30.07 1018 10 16 0.00 0.00
9:54 am 09:54 Mostly Cloudy 79 26.1 68 20 69 69 SSW 7 11 30.04 1017 10 16 0.00 0.00
10:54 am 10:54 Mostly Cloudy 83 28.3 68 20 61 61 SW 13 20 30.02 1017 10 16 0.00 0.00
11:54 am 11:54 Mostly Cloudy 86 30 70 21.1 59 59 S 14 22 30.00 1016 10 16 0.00 0.00
12:54 pm 12:54 Mostly Cloudy 87 30.6 70 21.1 57 57 S 14 22 29.97 1015 10 16 0.00 0.00
1:54 pm 13:54 Cloudy with Light Rain 84 28.9 72 22.2 67 67 SSW 8 13 29.94 1014 10 16 0.00 0.00
2:54 pm 14:54 Cloudy 81 27.2 74 23.3 79 79 S 8 13 29.92 1013 10 16 0.01 0.25
3:18 pm 15:18 Cloudy 82 27.8 74 23.3 77 77 S 6 9 29.91 1013 10 16 0.00 0.00
3:54 pm 15:54 Cloudy 82 27.8 74 23.3 77 77 S 9 15 29.88 1012 10 16 0.00 0.00
4:33 pm 16:33 Cloudy with Rain 79 26.1 74 23.3 85 85 S 3 6 29.88 1012 2 3 0.03 0.76
4:42 pm 16:42 Cloudy with Heavy Rain 78 25.6 74 23.3 87 87 VRB 5 7 29.87 1012 1 2 0.06 1.52
4:50 pm 16:50 Cloudy with Light Rain 79 26 73 23 84 84 ESE 6 9 29.86 1011 2 3 0.13 3.30
4:54 pm 16:54 Cloudy with Light Rain 78 25.6 74 23.3 87 87 SE 5 7 29.86 1011 4 6 0.14 3.56
4:59 pm 16:59 Cloudy with Strong Thunderstorms 78 25.6 75 23.9 90 90 WSW 6 9 29.88 1012 1 2 0.00 0.00
5:11 pm 17:11 Cloudy with Light Rain 77 25 75 23.9 94 94 NNE 13 20 29.87 1012 1 2 0.47 11.94
5:26 pm 17:26 Mostly Cloudy with Light Rain 80 26.7 76 24.4 87 87 W 5 7 29.86 1011 4 6 0.91 23.11
5:34 pm 17:34 Mostly Cloudy with Light Rain 81 27.2 75 23.9 82 82 W 5 7 29.86 1011 10 16 0.91 23.11
5:54 pm 17:54 Mostly Cloudy 81 27.2 76 24.4 85 85 SW 3 6 29.86 1011 10 16 0.91 23.11
6:14 pm 18:14 Partly Cloudy 82 27.8 76 24.4 82 82 VRB 3 6 29.86 1011 10 16 0.00 0.00
6:54 pm 18:54 Mostly Cloudy 82 27.8 75 23.9 79 79 Calm 29.86 1011 10 16 0.00 0.00
7:54 pm 19:54 Mostly Cloudy 81 27.2 77 25 88 88 SE 3 6 29.86 1011 10 16 0.00 0.00
8:54 pm 20:54 Mostly Cloudy 79 26.1 76 24.4 90 90 SE 3 6 29.85 1011 10 16 0.00 0.00
9:54 pm 21:54 Partly Cloudy 78 25.6 75 23.9 90 90 E 5 7 29.86 1011 10 16 0.00 0.00
10:54 pm 22:54 Partly Cloudy 78 25.6 75 23.9 90 90 Calm 29.85 1011 9 14 0.00 0.00
11:54 pm 23:54 Mostly Clear with Mist and Fog 77 25 75 23.9 94 94 Calm 29.84 1011 6 10 0.00 0.00

Powered by AerisWeather